ZHONGXING-9

Last updated on Mon Sep 07 2026 00:02:57 GMT+0000 (Coordinated Universal Time)

1 33051U 08028A 26249.66008421 -.00000265 00000+0 00000+0 0 9992 2 33051 0.9691 84.1277 0005184 108.2292 123.4138 1.00270981 66855
UTC large
Height (km)
Speed (km/s)
/
Latitude / Longitude
Inclination (degrees)
Orbital Period (minutes)
Azimuth
Elevation
Range (km)
Doppler Factor

Next 0 passes for location: London (51.5072 / 0.1276)

No passes found over London.
ZHONGXING-9